sat.trackr.live / text

‹ back to catalog

STARLINK-30524

NORAD 57965 · 2023-151B

PAYLOAD ACTIVE UNKNOWN

§ Identity

Operator
Country
US
Launch date
2023-09-30
Launch site
AFETR
Launch vehicle
Mass (kg)
RCS (m²)

Purposes: comms

External: N2YO · Heavens-Above · Gunter

§ Orbital elements

Epoch: 2026-09-20T20:48:06.472512Z

Period
94.27 min
Inclination
43.0058°
Eccentricity
0.0001874
Mean motion
15.27577374 rev/d
Perigee alt
481.8 km
Apogee alt
484.3 km
Semi-major
6,861.2 km
B*
3.0713e-5
RAAN
313.9794°
Arg perigee
272.4238°
Mean anomaly
87.6399°
Rev number
16,561

§ Raw data

STARLINK-305241 57965U 23151B   26263.86674158  .00000583  00000+0  30713-4 0  99912 57965  43.0058 313.9794 0001874 272.4238  87.6399 15.27577374165617

JSON: /api/v1/satellites/57965 · /tle

For live sub-satellite position, see the globe view (requires WebGL).

§ Visibility from observer

Set your observer location to see the next 7 days of passes ≥ 10°. The values pass through the URL so the page stays shareable.

No JS? Fill the form by hand. The geolocation button needs JavaScript.